This is the latest recevied weather packets stored in our database for station/object KO4APQ. If no packets are shown the sender has not sent any weather packets the latest 10 day(s).
| Time | Temp. | Humidity | Pressure | Rain* | Wind** | Luminosity | Snow |
|---|---|---|---|---|---|---|---|
| 1777908953 | 21.11° C | 39% | 1018.2 hPa | 0 mm | - | 787 W/m² | - |
| 1777908651 | 21.11° C | 38% | 1018.1 hPa | 0 mm | - | 791 W/m² | - |
| 1777908347 | 21.11° C | 37% | 1018.3 hPa | 0 mm | - | 745 W/m² | - |
| 1777908043 | 21.11° C | 42% | 1018.1 hPa | 0 mm | - | 796 W/m² | - |
| 1777907739 | 20.56° C | 41% | 1018.2 hPa | 0 mm | - | 761 W/m² | - |
| 1777907439 | 21.11° C | 37% | 1018.2 hPa | 0 mm | - | 748 W/m² | - |
| 1777907136 | 20.56° C | 38% | 1018.2 hPa | 0 mm | - | 711 W/m² | - |
| 1777906834 | 20.56° C | 38% | 1018 hPa | 0 mm | - | 731 W/m² | - |
| 1777906531 | 20.56° C | 38% | 1018 hPa | 0 mm | - | 711 W/m² | - |
| 1777906226 | 20° C | 40% | 1018.3 hPa | 0 mm | - | 681 W/m² | - |
| 1777905923 | 20° C | 41% | 1018.2 hPa | 0 mm | - | 684 W/m² | - |
| 1777905620 | 19.44° C | 43% | 1018.1 hPa | 0 mm | - | 677 W/m² | - |
| 1777905317 | 19.44° C | 43% | 1018.1 hPa | 0 mm | - | 660 W/m² | - |
| 1777905015 | 19.44° C | 44% | 1018.1 hPa | 0 mm | - | 655 W/m² | - |
| 1777904712 | 18.89° C | 46% | 1018.2 hPa | 0 mm | - | 643 W/m² | - |
| 1777904408 | 18.89° C | 43% | 1018.3 hPa | 0 mm | - | 614 W/m² | - |
| 1777904105 | 18.89° C | 49% | 1018.2 hPa | 0 mm | - | 528 W/m² | - |
| 1777903802 | 18.33° C | 45% | 1018.4 hPa | 0 mm | - | 595 W/m² | - |
| 1777903499 | 18.33° C | 49% | 1018.4 hPa | 0 mm | - | 571 W/m² | - |
| 1777903195 | 18.33° C | 50% | 1018.5 hPa | 0 mm | - | 561 W/m² | - |
| 1777902891 | 18.33° C | 51% | 1018.4 hPa | 0 mm | - | 526 W/m² | - |
| 1777902588 | 17.78° C | 54% | 1018.5 hPa | 0 mm | - | 522 W/m² | - |
| 1777902285 | 17.22° C | 55% | 1018.6 hPa | 0 mm | - | 489 W/m² | - |
| 1777901983 | 17.22° C | 52% | 1018.4 hPa | 0 mm | - | 484 W/m² | - |
| 1777901681 | 17.22° C | 55% | 1018.4 hPa | 0 mm | - | 466 W/m² | - |
* Rain latest hour (hover to see other rain measurements)
** Current wind speed in m/s (hover to see current wind gust speed)